Hourly Weather Roundup
Issued by NWS Central Illinois

Home | Current Version | Previous Version | Text Only | Print | Product List | Glossary On
Versions: 1 2 3 4 5 6 7 8 9 10 11 12 13 14 15 16 17 18 19 20 21 22 23 24 25 26 27 28 29 30 31 32 33 34 35 36 37 38 39 40 41 42 43 44 45 46 47 48 49 50
000
NZUS43 KILX 190810
HWRILX

AREA WEATHER ROUNDUP
NATIONAL WEATHER SERVICE, LINCOLN IL
300 AM CDT SUN APR 19 2015


CITY           SKY/WX    TMP DP  RH WIND       PRES   REMARKS
BLOOMINGTON    PTCLDY    53  46  77 E8        29.86F
CHAMPAIGN      CLOUDY    58  50  75 E10       29.84F
DECATUR        MOCLDY    58  49  72 E8        29.83F
EFFINGHAM      CLOUDY    64  44  48 E5        29.81F
FLORA          CLOUDY    63  48  58 NE3       29.79F
GALESBURG      MOCLDY    56  44  62 E9        29.81F
JACKSONVILLE   MOCLDY    60  51  72 E6        29.79F
LACON          MOCLDY    52  41  66 E7        29.85F
LAWRENCEVILLE  CLOUDY    65  48  54 E8        29.79F
LITCHFIELD     MOCLDY    62  47  56 E8        29.79F
$$


CITY           SKY/WX    TMP DP  RH WIND       PRES   REMARKS
LINCOLN        PTCLDY    59  49  70 E7        29.81F
MACOMB         MOCLDY    61  49  65 CALM      29.83F
MATTOON        CLOUDY    66  46  48 E12       29.81F
MT CARMEL AP   CLOUDY    64  46  52 E8        29.79F
OLNEY-NOBLE AP CLOUDY    63  46  55 E7        29.79F
PARIS          CLOUDY    61  51  70 E7        29.85F
PEORIA         MOCLDY    58  43  57 E12       29.83F
PONTIAC        MOCLDY    55  46  70 E16       29.87F
RANTOUL        CLOUDY    60  52  75 E13       29.86F
ROBINSON       CLOUDY    60  49  67 E7        29.81F
SPRINGFIELD    PTCLDY    61  49  64 E7        29.81F
TAYLORVILLE    MOCLDY    61  48  63 E6        29.80F
$$

...REGIONAL REPORTS...


CITY           SKY/WX    TMP DP  RH WIND       PRES   REMARKS
CHICAGO O`HARE CLOUDY    55  25  31 E10G23    29.91F
KANKAKEE       CLOUDY    56  37  50 E12       29.90F
MOLINE         MOCLDY    53  37  54 E10       29.83F
MOUNT VERNON   CLOUDY    64  48  55 E6        29.78F
PITTSFIELD     MOCLDY    64  53  67 CALM      29.79F
QUINCY         CLOUDY    60  55  83 E7        29.78F
ROCKFORD       CLOUDY    56  32  40 E9        29.91F
$$


CITY           SKY/WX    TMP DP  RH WIND       PRES   REMARKS
BURLINGTON     MOCLDY    59  58  96 NE6       29.80F
CEDAR RAPIDS   CLOUDY    53  44  71 SE10      29.81F
DES MOINES     CLOUDY    58  56  93 S3        29.78F
KIRKSVILLE     MOCLDY    58  56  93 SE6       29.78F
OTTUMWA        CLOUDY    57  56  96 E3        29.77F
ST LOUIS       MOCLDY    64  55  72 CALM      29.77F
$$


CITY           SKY/WX    TMP DP  RH WIND       PRES   REMARKS
TERRE HAUTE    CLOUDY    60  48  64 E6        29.83F
EVANSVILLE     LGT RAIN  65  55  70 NE3       29.79F
INDIANAPOLIS   CLOUDY    62  48  60 E14       29.86F
LAFAYETTE      CLOUDY    56  40  55 E14       29.89F
MADISON        CLOUDY    50  31  48 E9        29.91F
MILWAUKEE      CLOUDY    47  29  49 E20       29.97F
$$




USA.gov is the U.S. government's official web portal to all federal, state and local government web resources and services.